Weather History for KMZG - February, 2013

Change the Weather History Date:

Saturday, February 16, 2013

  Actual Average Record
Temperature  
Mean Temperature 56 °F -  
Max Temperature 60 °F - - ()
Min Temperature 53 °F - - ()
Degree Days  
Heating Degree Days 9    
Growing Degree Days 6 (Base 50)    
Moisture  
Dew Point 36 °F    
Average Humidity 47    
Maximum Humidity 67    
Minimum Humidity 33    
Precipitation  
Precipitation 0.00 in - - ()
Sea Level Pressure  
Sea Level Pressure 30.35 in    
Wind  
Wind Speed 19 mph ()    
Max Wind Speed 34 mph    
Max Gust Speed 41 mph    
Visibility 10.0 miles    
Events      
T = Trace of Precipitation, MM = Missing Value Source: Averaged Metar Reports

Daily Weather History Graph

Daily Weather History Graph

Search for Another Location

Airport or City:

Trip Planner

Search our weather history database for the weather conditions in past years. The results will help you decide how hot, cold, wet, or windy it might be!

Date:

Astronomy

Feb. 16, 2013 Rise Set
Actual Time 7:00 AM CST 6:17 PM CST
Civil Twilight 6:37 AM CST 6:40 PM CST
Nautical Twilight 6:09 AM CST 7:08 PM CST
Astronomical Twilight 5:42 AM CST 7:35 PM CST
Moon 10:52 AM CST (2/16) No Moon Set
Length of Visible Light 12h 03m
Length of Day
11h 16m
Waxing Crescent, 39% of the Moon is Illuminated
Feb 16
Waxing Crescent
Feb 17
First Quarter
Feb 25
Full
Mar 4
Last Quarter
Mar 11
New

Hourly Weather History & Observations

Time (CST) Temp. Dew Point Humidity Pressure Visibility Wind Dir Wind Speed Gust Speed Precip Events Conditions
12:15 AM 59.0 °F 46.4 °F 63% 30.26 in 10.0 mi North 34.5 mph 40.3 mph N/A   Clear
12:55 AM 57.2 °F 46.4 °F 67% 30.28 in 10.0 mi North 33.4 mph - N/A   Overcast
1:15 AM 57.2 °F 46.4 °F 67% 30.29 in 10.0 mi North 32.2 mph 41.4 mph N/A   Overcast
1:35 AM 57.2 °F 44.6 °F 63% 30.29 in 10.0 mi North 33.4 mph - N/A   Overcast
1:55 AM 57.2 °F 44.6 °F 63% 30.30 in 10.0 mi North 32.2 mph 41.4 mph N/A   Overcast
2:15 AM 55.4 °F 42.8 °F 63% 30.31 in 10.0 mi North 31.1 mph 40.3 mph N/A   Overcast
2:35 AM 55.4 °F 44.6 °F 67% 30.31 in 10.0 mi North 32.2 mph 39.1 mph N/A   Overcast
2:55 AM 55.4 °F 44.6 °F 67% 30.31 in 10.0 mi NNE 29.9 mph 38.0 mph N/A   Overcast
3:35 AM 55.4 °F 44.6 °F 67% 30.32 in 10.0 mi North 27.6 mph 34.5 mph N/A   Scattered Clouds
3:55 AM 55.4 °F 44.6 °F 67% 30.32 in 10.0 mi North 24.2 mph 31.1 mph N/A   Partly Cloudy
4:15 AM 55.4 °F 44.6 °F 67% 30.32 in 10.0 mi North 21.9 mph 27.6 mph N/A   Clear
4:35 AM 53.6 °F 42.8 °F 67% 30.33 in 10.0 mi North 24.2 mph 34.5 mph N/A   Partly Cloudy
5:35 AM 53.6 °F 39.2 °F 58% 30.35 in 10.0 mi North 24.2 mph 31.1 mph N/A   Scattered Clouds
5:55 AM 53.6 °F 37.4 °F 54% 30.36 in 10.0 mi North 27.6 mph 35.7 mph N/A   Partly Cloudy
6:15 AM 53.6 °F 37.4 °F 54% 30.36 in 10.0 mi North 25.3 mph 33.4 mph N/A   Partly Cloudy
6:35 AM 53.6 °F 37.4 °F 54% 30.37 in 10.0 mi North 25.3 mph - N/A   Clear
6:55 AM 53.6 °F 37.4 °F 54% 30.37 in 10.0 mi North 20.7 mph 27.6 mph N/A   Clear
7:35 AM 53.6 °F 35.6 °F 51% 30.39 in 10.0 mi North 26.5 mph 32.2 mph N/A   Clear
7:55 AM 53.6 °F 35.6 °F 51% 30.40 in 10.0 mi North 27.6 mph 34.5 mph N/A   Clear
8:15 AM 53.6 °F 35.6 °F 51% 30.41 in 10.0 mi North 26.5 mph 34.5 mph N/A   Clear
8:35 AM 53.6 °F 35.6 °F 51% 30.41 in 10.0 mi North 28.8 mph 34.5 mph N/A   Clear
8:55 AM 53.6 °F 37.4 °F 54% 30.42 in 10.0 mi North 28.8 mph - N/A   Clear
9:15 AM 53.6 °F 35.6 °F 51% 30.43 in 10.0 mi North 27.6 mph - N/A   Clear
9:35 AM 53.6 °F 33.8 °F 47% 30.43 in 10.0 mi North 27.6 mph - N/A   Clear
9:55 AM 53.6 °F 35.6 °F 51% 30.44 in 10.0 mi North 25.3 mph - N/A   Clear
10:15 AM 53.6 °F 33.8 °F 47% 30.45 in 10.0 mi North 21.9 mph - N/A   Clear
10:35 AM 53.6 °F 33.8 °F 47% 30.45 in 10.0 mi North 21.9 mph - N/A   Clear
10:55 AM 53.6 °F 33.8 °F 47% 30.45 in 10.0 mi North 16.1 mph 24.2 mph N/A   Clear
11:15 AM 53.6 °F 33.8 °F 47% 30.45 in 10.0 mi North 17.3 mph - N/A   Clear
11:35 AM 53.6 °F 33.8 °F 47% 30.44 in 10.0 mi North 16.1 mph - N/A   Clear
11:55 AM 53.6 °F 33.8 °F 47% 30.43 in 10.0 mi North 15.0 mph 21.9 mph N/A   Clear
12:15 PM 53.6 °F 32.0 °F 44% 30.42 in 10.0 mi North 15.0 mph - N/A   Clear
12:35 PM 53.6 °F 30.2 °F 41% 30.41 in 10.0 mi North 15.0 mph - N/A   Clear
12:55 PM 55.4 °F 33.8 °F 44% 30.41 in 10.0 mi North 11.5 mph 17.3 mph N/A   Clear
1:15 PM 55.4 °F 33.8 °F 44% 30.39 in 10.0 mi North 13.8 mph - N/A   Clear
1:35 PM 55.4 °F 30.2 °F 38% 30.38 in 10.0 mi North 13.8 mph - N/A   Clear
1:55 PM 55.4 °F 32.0 °F 41% 30.37 in 10.0 mi NNW 13.8 mph - N/A   Clear
2:15 PM 55.4 °F 32.0 °F 41% 30.36 in 10.0 mi North 10.4 mph - N/A   Clear
2:35 PM 55.4 °F 32.0 °F 41% 30.35 in 10.0 mi NW 11.5 mph - N/A   Clear
2:55 PM 55.4 °F 30.2 °F 38% 30.35 in 10.0 mi North 4.6 mph 12.7 mph N/A   Clear
3:15 PM 55.4 °F 32.0 °F 41% 30.34 in 10.0 mi NNW 8.1 mph - N/A   Clear
3:35 PM 55.4 °F 32.0 °F 41% 30.34 in 10.0 mi NNW 9.2 mph - N/A   Clear
3:55 PM 57.2 °F 32.0 °F 38% 30.33 in 10.0 mi North 6.9 mph - N/A   Clear
4:15 PM 57.2 °F 30.2 °F 36% 30.33 in 10.0 mi Calm Calm - N/A   Clear
4:35 PM 57.2 °F 28.4 °F 33% 30.32 in 10.0 mi North 4.6 mph - N/A   Clear
4:55 PM 57.2 °F 32.0 °F 38% 30.32 in 10.0 mi Calm Calm - N/A   Clear
5:15 PM 57.2 °F 30.2 °F 36% 30.32 in 10.0 mi Calm Calm - N/A   Clear
5:35 PM 57.2 °F 32.0 °F 38% 30.31 in 10.0 mi Calm Calm - N/A   Clear
5:55 PM 57.2 °F 32.0 °F 38% 30.31 in 10.0 mi Calm Calm - N/A   Clear
6:15 PM 57.2 °F 32.0 °F 38% 30.31 in 10.0 mi SW 4.6 mph - N/A   Clear
6:35 PM 57.2 °F 32.0 °F 38% 30.31 in 10.0 mi Calm Calm - N/A   Unknown
6:55 PM 57.2 °F 32.0 °F 38% 30.31 in 10.0 mi Variable 3.5 mph - N/A   Unknown
7:15 PM 57.2 °F 32.0 °F 38% 30.30 in 10.0 mi Calm Calm - N/A   Unknown
7:35 PM 57.2 °F 32.0 °F 38% 30.31 in 10.0 mi SSE 4.6 mph - N/A   Unknown
7:55 PM 57.2 °F 33.8 °F 41% 30.31 in 10.0 mi SSE 4.6 mph - N/A   Unknown
8:15 PM 57.2 °F 33.8 °F 41% 30.31 in 10.0 mi Calm Calm - N/A   Unknown
8:35 PM 57.2 °F 33.8 °F 41% 30.31 in 10.0 mi SSE 6.9 mph - N/A   Unknown
8:55 PM 57.2 °F 33.8 °F 41% 30.32 in 10.0 mi Variable 3.5 mph - N/A   Unknown
9:15 PM 59.0 °F 33.8 °F 39% 30.32 in 10.0 mi SSE 4.6 mph - N/A   Unknown
9:35 PM 59.0 °F 35.6 °F 42% 30.32 in 10.0 mi SSE 5.8 mph - N/A   Unknown
9:55 PM 59.0 °F 35.6 °F 42% 30.32 in 10.0 mi Variable 4.6 mph - N/A   Unknown
10:15 PM 59.0 °F 35.6 °F 42% 30.32 in 10.0 mi SSE 6.9 mph - N/A   Unknown
10:35 PM 59.0 °F 33.8 °F 39% 30.31 in 10.0 mi SSE 4.6 mph - N/A   Unknown
10:55 PM 59.0 °F 35.6 °F 42% 30.31 in 10.0 mi Variable 5.8 mph - N/A   Unknown
11:15 PM 59.0 °F 33.8 °F 39% 30.30 in 10.0 mi SSE 8.1 mph - N/A   Unknown
11:35 PM 59.0 °F 35.6 °F 42% 30.30 in 10.0 mi SSE 5.8 mph 13.8 mph N/A   Unknown
11:55 PM 60.8 °F 35.6 °F 39% 30.29 in 10.0 mi South 9.2 mph - N/A   Unknown